Location: Middlebury College Observatory
(44.0123°N, 73.1804°W)
Time: 19:28:07
(UTC-05:00)

N. Korean satellite - Visible Passes

Search period start: 23 February 2018 00:00
Search period end: 05 March 2018 00:00
Orbit: 459 x 514 km, 97.2° (Epoch: 23 February)

Date Brightness Start Highest point End Pass type
(mag) Time Alt. Az. Time Alt. Az. Time Alt. Az.
23 Feb 9.6 05:50:21 10° NE 05:53:18 22° E 05:56:16 10° SSE visible
23 Feb 7.6 18:00:44 10° S 18:04:06 51° W 18:07:32 10° NNW visible
24 Feb 10.5 05:27:52 10° ENE 05:29:23 12° E 05:30:53 10° ESE visible
25 Feb 10.1 18:48:28 10° WSW 18:50:19 14° W 18:52:13 10° WNW visible
26 Feb 9.1 18:23:26 10° SSW 18:26:23 26° W 18:29:25 10° NW visible
27 Feb 9.7 05:48:51 10° NE 05:51:47 22° E 05:54:44 10° SSE visible
28 Feb 10.5 05:26:25 10° ENE 05:27:51 12° E 05:29:16 10° ESE visible
01 Mar 10.0 18:46:45 10° SW 18:48:45 14° W 18:50:46 10° WNW visible
02 Mar 9.1 18:21:47 10° SSW 18:24:49 27° W 18:27:54 10° NW visible
03 Mar 9.8 05:47:19 10° NE 05:50:14 21° E 05:53:09 10° SE visible
04 Mar 10.6 05:24:57 10° ENE 05:26:17 11° E 05:27:35 10° ESE visible
